This demonstration page uses our WeatherBlox Daily Observations layout. Learn more.

Left ArrowRight Arrow

39.12711, -84.51439

Hourly Observations for July 5, 2018

Temp ( °F °C ) Dew Point ( °F °C ) Humidity (%) Winds ( mph kmh ) Pressure ( in mb ) Visibility ( mi km ) Precip ( " mm )
12:53 am 00:53 Clear with Mist and Fog 77 25 76 24.4 96 96 Calm 30.23 1024 5 8 0.00 0.00
1:53 am 01:53 Clear with Mist and Fog 76 24.4 76 24.4 100 100 Calm 30.23 1024 5 8 0.00 0.00
2:53 am 02:53 Clear with Mist and Fog 76 24.4 75 23.9 97 97 Calm 30.22 1023 5 8 0.00 0.00
3:53 am 03:53 Clear with Mist and Fog 75 23.9 75 23.9 100 100 Calm 30.23 1024 5 8 0.00 0.00
4:53 am 04:53 Clear with Mist and Fog 74 23.3 74 23.3 100 100 Calm 30.22 1023 4 6 0.00 0.00
5:01 am 05:01 Clear with Mist and Fog 73 22.8 73 22.8 100 100 Calm 30.21 1023 1 1 0.00 0.00
5:10 am 05:10 Clear with Mist and Fog 74 23.3 74 23.3 100 100 Calm 30.21 1023 3 4 0.00 0.00
5:17 am 05:17 Clear with Mist and Fog 75 23.9 75 23.9 100 100 Calm 30.21 1023 5 8 0.00 0.00
5:53 am 05:53 Clear with Mist and Fog 74 23.3 74 23.3 100 100 Calm 30.22 1023 4 6 0.00 0.00
6:19 am 06:19 Sunny with Mist and Fog 74 23.3 74 23.3 100 100 Calm 30.21 1023 1 2 0.00 0.00
6:25 am 06:25 Sunny with Fog 73 22.8 73 22.8 100 100 Calm 30.21 1023 0 0 0.00 0.00
6:34 am 06:34 Sunny with Mist and Fog 74 23.3 74 23.3 100 100 Calm 30.21 1023 1 2 0.00 0.00
6:42 am 06:42 Sunny with Fog 73 22.8 73 22.8 100 100 Calm 30.21 1023 0 0 0.00 0.00
6:48 am 06:48 Sunny with Mist and Fog 73 23 73 23 100 100 Calm 30.21 1023 6 10 0.00 0.00
6:53 am 06:53 Sunny with Mist and Fog 73 22.8 73 22.8 100 100 Calm 30.23 1024 6 10 0.00 0.00
7:53 am 07:53 Sunny with Mist and Fog 77 25 76 24.4 96 96 Calm 30.24 1024 6 10 0.00 0.00
8:53 am 08:53 Sunny 82 27.8 77 25 85 85 Calm 30.25 1025 7 11 0.00 0.00
9:53 am 09:53 Sunny 86 30 78 25.6 77 77 ESE 3 6 30.26 1025 10 16 0.00 0.00
10:53 am 10:53 Mostly Cloudy 91 32.8 79 26.1 68 68 Calm 30.26 1025 10 16 0.00 0.00
11:53 am 11:53 Mostly Sunny 92 33.3 76 24.4 60 60 Calm 30.23 1024 10 16 0.00 0.00
12:12 pm 12:12 Mostly Cloudy with Nearby Thunderstorms 90 32.2 77 25 66 66 NNW 9 15 30.21 1023 10 16 0.00 0.00
12:32 pm 12:32 Mostly Cloudy 93 33.9 77 25 60 60 NNW 5 7 30.18 1022 10 16 0.00 0.00
12:53 pm 12:53 Mostly Cloudy 92 33.3 77 25 62 62 Calm 30.22 1023 10 16 0.00 0.00
1:43 pm 13:43 Mostly Cloudy with Nearby Thunderstorms 94 34.4 76 24.4 56 56 W 3 6 30.18 1022 10 16 0.00 0.00
1:53 pm 13:53 Mostly Cloudy 94 34.4 76 24.4 56 56 NNW 7 11 30.21 1023 10 16 0.00 0.00
2:00 pm 14:00 Mostly Cloudy with Nearby Thunderstorms 93 33.9 76 24.4 58 58 NW 7 11 30.18 1022 10 16 0.00 0.00
2:11 pm 14:11 Mostly Cloudy with Thunderstorms 88 31.1 71 21.7 57 57 W 10 17 30.21 1023 10 16 0.00 0.03
2:30 pm 14:30 Mostly Cloudy with Thunderstorms 85 29.4 72 22.2 65 65 VRB 3 6 30.21 1023 10 16 0.19 4.83
2:45 pm 14:45 Partly Cloudy with Nearby Thunderstorms 79 26.1 75 23.9 88 88 S 3 6 30.18 1022 10 16 0.19 4.83
2:53 pm 14:53 Sunny 81 27.2 78 25.6 91 91 S 3 6 30.20 1023 10 16 0.19 4.83
3:37 pm 15:37 Sunny with Nearby Thunderstorms 92 33.3 74 23.3 56 56 W 9 15 30.15 1021 10 16 0.00 0.00
3:53 pm 15:53 Partly Cloudy 93 33.9 75 23.9 56 56 WNW 12 19 30.18 1022 10 16 0.00 0.00
4:02 pm 16:02 Partly Cloudy with Nearby Thunderstorms 94 34.4 75 23.9 54 54 VRB 7 11 30.12 1020 10 16 0.00 0.00
4:26 pm 16:26 Sunny 93 33.9 75 23.9 56 56 NW 9 15 30.12 1020 10 16 0.00 0.00
4:53 pm 16:53 Sunny 91 32.8 75 23.9 59 59 NNW 14 22 30.18 1022 10 16 0.00 0.00
5:53 pm 17:53 Sunny 87 30.6 70 21.1 57 57 N 10 17 30.20 1023 10 16 0.00 0.00
6:53 pm 18:53 Mostly Sunny 86 30 68 20 55 55 N 8 13 30.21 1023 10 16 0.00 0.00
7:53 pm 19:53 Sunny 84 28.9 69 20.6 61 61 NNW 7 11 30.18 1022 10 16 0.00 0.00
8:53 pm 20:53 Sunny 82 27.8 70 21.1 67 67 NW 6 9 30.19 1022 10 16 0.00 0.00
9:53 pm 21:53 Clear 81 27.2 70 21.1 69 69 NW 3 6 30.20 1023 10 16 0.00 0.00
10:53 pm 22:53 Mostly Clear 79 26.1 70 21.1 74 74 W 5 7 30.22 1023 10 16 0.00 0.00
11:53 pm 23:53 Clear 79 26.1 71 21.7 77 77 WNW 5 7 30.21 1023 10 16 0.00 0.00

Powered by AerisWeather